sat.trackr.live / text

‹ back to catalog

STARLINK-37201

NORAD 69220 · 2026-115K

PAYLOAD ACTIVE UNKNOWN

§ Identity

Operator
Country
US
Launch date
2026-05-26
Launch site
AFWTR
Launch vehicle
Mass (kg)
RCS (m²)

Purposes: comms

External: N2YO · Heavens-Above · Gunter

§ Orbital elements

Epoch: 2026-09-20T00:11:00.496896Z

Period
93.91 min
Inclination
97.2835°
Eccentricity
0.0001592
Mean motion
15.33450538 rev/d
Perigee alt
464.4 km
Apogee alt
466.6 km
Semi-major
6,843.7 km
B*
5.3751e-4
RAAN
279.0899°
Arg perigee
98.8926°
Mean anomaly
261.2497°
Rev number
1,921

§ Raw data

STARLINK-372011 69220U 26115K   26263.00764464  .00017321  00000+0  53751-3 0  99912 69220  97.2835 279.0899 0001592  98.8926 261.2497 15.33450538 19219

JSON: /api/v1/satellites/69220 · /tle

For live sub-satellite position, see the globe view (requires WebGL).

§ Visibility from observer

Set your observer location to see the next 7 days of passes ≥ 10°. The values pass through the URL so the page stays shareable.

No JS? Fill the form by hand. The geolocation button needs JavaScript.